Time,TemperatureF,DewpointF,PressureIn,WindDirection,WindDirectionDegrees,WindSpeedMPH,WindSpeedGustMPH,Humidity,HourlyPrecipIn,Conditions,Clouds,dailyrainin,SoftwareType,DateUTC
2013-07-23 00:07:00,66.4,60.0,29.84,NW,325,4.0,7.0,80,0.00,,,0.00,weatherlink.com 1.10,2013-07-23 05:07:00,
2013-07-23 00:22:00,65.6,60.0,29.84,NW,323,4.0,6.0,81,0.00,,,0.00,weatherlink.com 1.10,2013-07-23 05:22:00,
2013-07-23 00:37:00,64.4,60.0,29.83,NW,326,4.0,6.0,84,0.00,,,0.00,weatherlink.com 1.10,2013-07-23 05:37:00,
2013-07-23 00:52:00,63.5,59.0,29.83,NW,323,5.0,7.0,86,0.00,,,0.00,weatherlink.com 1.10,2013-07-23 05:52:00,
2013-07-23 01:07:00,63.2,59.0,29.83,North,2,4.0,8.0,85,0.00,,,0.00,weatherlink.com 1.10,2013-07-23 06:07:00,
2013-07-23 01:22:00,63.2,59.0,29.84,NW,317,4.0,9.0,85,0.00,,,0.00,weatherlink.com 1.10,2013-07-23 06:22:00,
2013-07-23 01:37:00,62.4,58.0,29.84,NNW,330,5.0,6.0,86,0.00,,,0.00,weatherlink.com 1.10,2013-07-23 06:37:00,
2013-07-23 01:52:00,62.1,58.0,29.84,NNW,345,7.0,8.0,87,0.00,,,0.00,weatherlink.com 1.10,2013-07-23 06:52:00,
2013-07-23 02:07:00,61.4,58.0,29.84,NW,324,5.0,5.0,88,0.00,,,0.00,weatherlink.com 1.10,2013-07-23 07:07:00,
2013-07-23 02:23:00,61.1,58.0,29.84,NNW,330,6.0,6.0,88,0.00,,,0.00,weatherlink.com 1.10,2013-07-23 07:23:00,
2013-07-23 02:37:00,60.4,57.0,29.85,NNW,330,4.0,6.0,89,0.00,,,0.00,weatherlink.com 1.10,2013-07-23 07:37:00,
2013-07-23 02:52:00,60.1,57.0,29.86,NW,322,3.0,3.0,90,0.00,,,0.00,weatherlink.com 1.10,2013-07-23 07:52:00,
2013-07-23 03:07:00,60.0,57.0,29.86,NW,321,4.0,5.0,90,0.00,,,0.00,weatherlink.com 1.10,2013-07-23 08:07:00,
2013-07-23 03:22:00,59.0,56.0,29.87,WNW,300,1.0,2.0,90,0.00,,,0.00,weatherlink.com 1.10,2013-07-23 08:22:00,
2013-07-23 03:37:00,58.0,56.0,29.88,WNW,303,2.0,2.0,92,0.00,,,0.00,weatherlink.com 1.10,2013-07-23 08:37:00,
2013-07-23 03:52:00,57.4,55.0,29.88,WNW,298,2.0,3.0,93,0.00,,,0.00,weatherlink.com 1.10,2013-07-23 08:52:00,
2013-07-23 04:07:00,57.4,56.0,29.88,NW,321,4.0,5.0,94,0.00,,,0.00,weatherlink.com 1.10,2013-07-23 09:07:00,
2013-07-23 04:23:00,57.4,55.0,29.89,WNW,301,2.0,3.0,92,0.00,,,0.00,weatherlink.com 1.10,2013-07-23 09:23:00,
2013-07-23 04:38:00,56.8,55.0,29.90,WNW,291,3.0,4.0,94,0.00,,,0.00,weatherlink.com 1.10,2013-07-23 09:38:00,
2013-07-23 04:53:00,57.5,56.0,29.90,NW,326,5.0,7.0,94,0.00,,,0.00,weatherlink.com 1.10,2013-07-23 09:53:00,
2013-07-23 05:08:00,57.6,56.0,29.88,NNW,332,6.0,8.0,93,0.00,,,0.00,weatherlink.com 1.10,2013-07-23 10:08:00,
2013-07-23 05:23:00,57.4,55.0,29.89,NW,326,5.0,8.0,93,0.00,,,0.00,weatherlink.com 1.10,2013-07-23 10:23:00,
2013-07-23 05:38:00,57.6,56.0,29.90,WNW,300,2.0,5.0,93,0.00,,,0.00,weatherlink.com 1.10,2013-07-23 10:38:00,
2013-07-23 05:53:00,57.6,55.0,29.90,NW,321,4.0,6.0,92,0.00,,,0.00,weatherlink.com 1.10,2013-07-23 10:53:00,
2013-07-23 06:08:00,57.5,56.0,29.92,NW,321,4.0,6.0,93,0.00,,,0.00,weatherlink.com 1.10,2013-07-23 11:08:00,
2013-07-23 06:23:00,57.9,56.0,29.92,NW,323,3.0,5.0,92,0.00,,,0.00,weatherlink.com 1.10,2013-07-23 11:23:00,
2013-07-23 06:38:00,58.8,57.0,29.91,NW,320,3.0,5.0,92,0.00,,,0.00,weatherlink.com 1.10,2013-07-23 11:38:00,
2013-07-23 06:53:00,59.5,57.0,29.91,NNW,335,5.0,5.0,91,0.00,,,0.00,weatherlink.com 1.10,2013-07-23 11:53:00,
2013-07-23 07:08:00,59.8,57.0,29.93,NW,304,1.0,4.0,91,0.00,,,0.00,weatherlink.com 1.10,2013-07-23 12:08:00,
2013-07-23 07:23:00,60.1,58.0,29.93,NW,321,2.0,4.0,91,0.00,,,0.00,weatherlink.com 1.10,2013-07-23 12:23:00,
2013-07-23 07:38:00,61.1,58.0,29.92,North,3,6.0,12.0,89,0.00,,,0.00,weatherlink.com 1.10,2013-07-23 12:38:00,
2013-07-23 07:53:00,61.7,58.0,29.93,NNW,342,3.0,8.0,88,0.00,,,0.00,weatherlink.com 1.10,2013-07-23 12:53:00,
2013-07-23 08:08:00,62.3,58.0,29.94,NNW,342,4.0,9.0,87,0.00,,,0.00,weatherlink.com 1.10,2013-07-23 13:08:00,
2013-07-23 08:23:00,64.4,59.0,29.93,NNW,333,5.0,10.0,83,0.00,,,0.00,weatherlink.com 1.10,2013-07-23 13:23:00,
2013-07-23 08:38:00,64.8,58.0,29.93,NNW,344,5.0,14.0,79,0.00,,,0.00,weatherlink.com 1.10,2013-07-23 13:38:00,
2013-07-23 08:53:00,65.2,58.0,29.93,NNE,14,9.0,14.0,78,0.00,,,0.00,weatherlink.com 1.10,2013-07-23 13:53:00,
2013-07-23 09:08:00,65.8,58.0,29.93,NE,46,16.0,16.0,76,0.00,,,0.00,weatherlink.com 1.10,2013-07-23 14:08:00,
2013-07-23 09:23:00,66.1,57.0,29.94,NE,45,7.0,14.0,73,0.00,,,0.00,weatherlink.com 1.10,2013-07-23 14:23:00,
2013-07-23 09:38:00,66.3,57.0,29.93,NNE,27,12.0,17.0,71,0.00,,,0.00,weatherlink.com 1.10,2013-07-23 14:38:00,
2013-07-23 09:53:00,66.4,57.0,29.95,NE,54,8.0,14.0,71,0.00,,,0.00,weatherlink.com 1.10,2013-07-23 14:53:00,
2013-07-23 10:08:00,67.1,58.0,29.95,NE,49,11.0,16.0,72,0.00,,,0.00,weatherlink.com 1.10,2013-07-23 15:08:00,
2013-07-23 10:23:00,67.6,57.0,29.95,NE,53,9.0,12.0,70,0.00,,,0.00,weatherlink.com 1.10,2013-07-23 15:23:00,
2013-07-23 10:38:00,68.1,57.0,29.96,NNE,15,4.0,13.0,68,0.00,,,0.00,weatherlink.com 1.10,2013-07-23 15:38:00,
2013-07-23 10:53:00,68.8,57.0,29.97,NNW,331,6.0,10.0,66,0.00,,,0.00,weatherlink.com 1.10,2013-07-23 15:53:00,
2013-07-23 11:08:00,68.6,57.0,29.98,NE,44,6.0,11.0,67,0.00,,,0.00,weatherlink.com 1.10,2013-07-23 16:08:00,
2013-07-23 11:23:00,69.7,58.0,29.98,NNW,332,7.0,9.0,67,0.00,,,0.00,weatherlink.com 1.10,2013-07-23 16:23:00,
2013-07-23 11:38:00,70.5,58.0,29.98,NE,36,7.0,14.0,64,0.00,,,0.00,weatherlink.com 1.10,2013-07-23 16:38:00,
2013-07-23 11:53:00,70.4,58.0,29.98,NNW,332,2.0,11.0,65,0.00,,,0.00,weatherlink.com 1.10,2013-07-23 16:53:00,
2013-07-23 12:08:00,71.8,57.0,29.97,NNE,21,13.0,16.0,60,0.00,,,0.00,weatherlink.com 1.10,2013-07-23 17:08:00,
2013-07-23 12:23:00,70.7,56.0,29.97,NNE,21,9.0,16.0,60,0.00,,,0.00,weatherlink.com 1.10,2013-07-23 17:23:00,
2013-07-23 12:38:00,70.9,56.0,29.96,NW,319,6.0,11.0,60,0.00,,,0.00,weatherlink.com 1.10,2013-07-23 17:38:00,
2013-07-23 13:08:00,72.3,56.0,29.96,NNE,25,8.0,14.0,57,0.00,,,0.00,weatherlink.com 1.10,2013-07-23 18:08:00,
2013-07-23 13:38:00,72.3,55.0,29.96,NNE,27,8.0,14.0,55,0.00,,,0.00,weatherlink.com 1.10,2013-07-23 18:38:00,
2013-07-23 13:53:00,72.5,55.0,29.96,NE,40,11.0,14.0,55,0.00,,,0.00,weatherlink.com 1.10,2013-07-23 18:53:00,
2013-07-23 14:08:00,72.8,55.0,29.96,NE,38,10.0,15.0,54,0.00,,,0.00,weatherlink.com 1.10,2013-07-23 19:08:00,
2013-07-23 14:39:00,70.7,55.0,29.95,North,352,20.0,20.0,58,0.00,,,0.00,weatherlink.com 1.10,2013-07-23 19:39:00,
2013-07-23 14:54:00,69.0,55.0,29.95,NNE,23,10.0,18.0,62,0.00,,,0.00,weatherlink.com 1.10,2013-07-23 19:54:00,
2013-07-23 15:09:00,68.5,57.0,29.96,NNE,14,3.0,12.0,67,0.00,,,0.00,weatherlink.com 1.10,2013-07-23 20:09:00,
2013-07-23 15:24:00,69.4,56.0,29.96,NNE,25,9.0,11.0,62,0.00,,,0.00,weatherlink.com 1.10,2013-07-23 20:24:00,
2013-07-23 15:39:00,70.8,55.0,29.96,NE,46,6.0,13.0,58,0.00,,,0.00,weatherlink.com 1.10,2013-07-23 20:39:00,
2013-07-23 16:24:00,73.1,56.0,29.95,NNE,29,14.0,17.0,56,0.00,,,0.00,weatherlink.com 1.10,2013-07-23 21:24:00,
2013-07-23 16:39:00,73.1,56.0,29.96,NE,44,8.0,15.0,55,0.00,,,0.00,weatherlink.com 1.10,2013-07-23 21:39:00,
2013-07-23 16:54:00,73.3,55.0,29.95,NNE,33,6.0,16.0,53,0.00,,,0.00,weatherlink.com 1.10,2013-07-23 21:54:00,
2013-07-23 17:09:00,73.4,56.0,29.96,NE,39,11.0,14.0,55,0.00,,,0.00,weatherlink.com 1.10,2013-07-23 22:09:00,
2013-07-23 17:24:00,73.2,55.0,29.96,North,8,9.0,10.0,54,0.00,,,0.00,weatherlink.com 1.10,2013-07-23 22:24:00,
2013-07-23 17:39:00,73.0,55.0,29.96,NNE,28,5.0,14.0,53,0.00,,,0.00,weatherlink.com 1.10,2013-07-23 22:39:00,
2013-07-23 17:54:00,72.8,55.0,29.96,NNE,30,9.0,12.0,53,0.00,,,0.00,weatherlink.com 1.10,2013-07-23 22:54:00,
2013-07-23 18:09:00,72.8,55.0,29.96,NE,42,7.0,14.0,53,0.00,,,0.00,weatherlink.com 1.10,2013-07-23 23:09:00,
2013-07-23 18:24:00,72.8,54.0,29.96,NNE,17,5.0,10.0,51,0.00,,,0.00,weatherlink.com 1.10,2013-07-23 23:24:00,
2013-07-23 18:39:00,73.3,55.0,29.96,NW,323,3.0,6.0,53,0.00,,,0.00,weatherlink.com 1.10,2013-07-23 23:39:00,
2013-07-23 18:54:00,73.6,56.0,29.96,NNE,30,1.0,5.0,54,0.00,,,0.00,weatherlink.com 1.10,2013-07-23 23:54:00,
2013-07-23 19:09:00,74.5,56.0,29.96,North,10,3.0,4.0,53,0.00,,,0.00,weatherlink.com 1.10,2013-07-24 00:09:00,
2013-07-23 19:24:00,73.7,57.0,29.96,NW,323,1.0,4.0,57,0.00,,,0.00,weatherlink.com 1.10,2013-07-24 00:24:00,
2013-07-23 19:39:00,72.9,57.0,29.97,NW,325,2.0,4.0,57,0.00,,,0.00,weatherlink.com 1.10,2013-07-24 00:39:00,
2013-07-23 19:54:00,70.9,57.0,29.97,NW,323,2.0,3.0,61,0.00,,,0.00,weatherlink.com 1.10,2013-07-24 00:54:00,
2013-07-23 20:09:00,70.3,57.0,29.97,NW,312,1.0,2.0,64,0.00,,,0.00,weatherlink.com 1.10,2013-07-24 01:09:00,
2013-07-23 20:24:00,69.2,58.0,29.97,NW,304,1.0,2.0,67,0.00,,,0.00,weatherlink.com 1.10,2013-07-24 01:24:00,
2013-07-23 20:39:00,67.8,58.0,29.97,NW,304,1.0,2.0,71,0.00,,,0.00,weatherlink.com 1.10,2013-07-24 01:39:00,
2013-07-23 20:54:00,67.3,58.0,29.97,NW,309,0.0,2.0,71,0.00,,,0.00,weatherlink.com 1.10,2013-07-24 01:54:00,
2013-07-23 21:09:00,66.6,58.0,29.98,NW,309,1.0,1.0,73,0.00,,,0.00,weatherlink.com 1.10,2013-07-24 02:09:00,
2013-07-23 21:24:00,64.9,58.0,29.98,WNW,302,1.0,2.0,77,0.00,,,0.00,weatherlink.com 1.10,2013-07-24 02:24:00,
2013-07-23 21:39:00,64.8,57.0,29.98,NW,323,4.0,5.0,77,0.00,,,0.00,weatherlink.com 1.10,2013-07-24 02:39:00,
2013-07-23 21:54:00,64.6,57.0,29.99,NNW,340,3.0,6.0,77,0.00,,,0.00,weatherlink.com 1.10,2013-07-24 02:54:00,
2013-07-23 22:08:00,63.1,57.0,30.00,NE,36,5.0,7.0,79,0.00,,,0.00,weatherlink.com 1.10,2013-07-24 03:08:00,
2013-07-23 22:24:00,63.3,56.0,30.00,NE,35,6.0,6.0,77,0.00,,,0.00,weatherlink.com 1.10,2013-07-24 03:24:00,
2013-07-23 22:39:00,64.0,56.0,30.00,NE,37,6.0,7.0,75,0.00,,,0.00,weatherlink.com 1.10,2013-07-24 03:39:00,
2013-07-23 22:54:00,63.8,55.0,30.01,NE,37,5.0,6.0,74,0.00,,,0.00,weatherlink.com 1.10,2013-07-24 03:54:00,
2013-07-23 23:09:00,63.4,55.0,30.01,NE,39,5.0,6.0,75,0.00,,,0.00,weatherlink.com 1.10,2013-07-24 04:09:00,
2013-07-23 23:24:00,63.5,55.0,30.01,NE,41,5.0,5.0,74,0.00,,,0.00,weatherlink.com 1.10,2013-07-24 04:24:00,
2013-07-23 23:39:00,63.4,55.0,30.02,NE,37,5.0,6.0,74,0.00,,,0.00,weatherlink.com 1.10,2013-07-24 04:39:00,
2013-07-23 23:54:00,63.1,55.0,30.02,NE,42,5.0,6.0,75,0.00,,,0.00,weatherlink.com 1.10,2013-07-24 04:54:00,